Shirley, NY

8:42 PM EST on January 16, 2018 (GMT -0500)
Brookhaven

Weather History for KHWV - December, 2008

Change the Weather History Date:

Wednesday, December 31, 2008

  Actual Average (KISP) Record (KISP)
Temperature  
Mean Temperature 26 °F -  
Max Temperature 35 °F 39 °F 59 °F (1992)
Min Temperature 15 °F 25 °F -1 °F (1963)
Degree Days  
Heating Degree Days 40    
Moisture  
Dew Point 17 °F    
Average Humidity 69    
Maximum Humidity 87    
Minimum Humidity 45    
Precipitation  
Precipitation 0.13 in - - ()
Sea Level Pressure  
Sea Level Pressure 29.60 in    
Wind  
Wind Speed 10 mph (NNW)    
Max Wind Speed 29 mph    
Max Gust Speed 46 mph    
Averages and records for this station are not official NWS values.
T = Trace of Precipitation, MM = Missing Value Source: NWS Daily Summary

Daily Weather History Graph

Daily Weather History Graph

Search for Another Location

Airport or City:

Trip Planner

Search our weather history database for the weather conditions in past years. The results will help you decide how hot, cold, wet, or windy it might be!

Date:

Astronomy

Dec. 31, 2008 Rise Set
Actual Time 7:15 AM EST 4:33 PM EST
Civil Twilight 6:44 AM EST 5:04 PM EST
Nautical Twilight 6:10 AM EST 5:39 PM EST
Astronomical Twilight 5:37 AM EST 6:12 PM EST
Moon 9:39 AM EST (12/31) 8:42 PM EST (12/31)
Length of Visible Light 10h 19m
Length of Day
9h 18m
Waxing Crescent, 15% of the Moon is Illuminated
Dec 31
Waxing Crescent
Jan 4
First Quarter
Jan 10
Full
Jan 17
Last Quarter
Jan 26
New

Hourly Weather History & Observations

Time (EST) Temp. Windchill Dew Point Humidity Pressure Visibility Wind Dir Wind Speed Gust Speed Precip Events Conditions
12:56 AM 27.0 °F - 12.9 °F 56% 29.86 in - Calm Calm - N/A   Scattered Clouds
1:56 AM 28.9 °F - 14.0 °F 54% 29.82 in - Calm Calm - N/A   Scattered Clouds
2:56 AM 28.0 °F - 15.1 °F 58% 29.80 in - Calm Calm - N/A   Clear
3:56 AM 28.9 °F 25.2 °F 16.0 °F 58% 29.74 in - Variable 3.5 mph - N/A   Clear
4:56 AM 30.0 °F 26.5 °F 17.1 °F 59% 29.69 in - Variable 3.5 mph - N/A   Clear
5:56 AM 30.9 °F 27.5 °F 19.0 °F 61% 29.64 in - Variable 3.5 mph - N/A   Scattered Clouds
6:56 AM 32.0 °F 26.4 °F 19.9 °F 61% 29.57 in - Variable 5.8 mph - N/A   Partly Cloudy
7:56 AM 33.1 °F 27.7 °F 21.0 °F 61% 29.50 in - East 5.8 mph - N/A   Overcast
9:32 AM 35.6 °F 29.2 °F 28.4 °F 75% 29.40 in - NNE 8.1 mph - 0.01 in   Overcast
9:52 AM 35.6 °F 32.8 °F 28.4 °F 75% 29.38 in - Variable 3.5 mph - 0.04 in Rain Rain
9:56 AM 34.0 °F 28.0 °F 28.9 °F 82% 29.38 in - North 6.9 mph - 0.05 in Rain Rain
10:56 AM 32.0 °F 20.1 °F 28.0 °F 85% 29.41 in - North 19.6 mph 26.5 mph 0.07 in Snow Heavy Snow
11:02 AM 32.0 °F 20.8 °F 28.4 °F 87% 29.39 in - North 17.3 mph 29.9 mph 0.00 in   Overcast
11:22 AM 30.2 °F 19.8 °F 26.6 °F 86% 29.39 in - North 13.8 mph 23.0 mph 0.01 in Snow Light Snow
11:43 AM 30.2 °F 18.9 °F 24.8 °F 80% 29.39 in - North 16.1 mph 29.9 mph 0.01 in Snow Light Snow
11:54 AM 28.4 °F 15.8 °F 24.8 °F 86% 29.40 in - North 18.4 mph 26.5 mph 0.01 in Snow Light Snow
11:56 AM 28.9 °F 16.5 °F 24.1 °F 82% 29.39 in - North 18.4 mph 27.6 mph 0.01 in Snow Light Snow
12:54 PM 26.6 °F 13.8 °F 21.2 °F 80% 29.40 in - North 17.3 mph 29.9 mph 0.00 in   Overcast
12:56 PM 27.0 °F 13.5 °F 21.0 °F 78% 29.41 in - North 19.6 mph 29.9 mph 0.00 in   Overcast
1:56 PM 25.0 °F 10.9 °F 18.0 °F 75% 29.49 in - North 19.6 mph 26.5 mph 0.00 in Snow Light Snow
2:15 PM 24.8 °F 10.7 °F 19.4 °F 80% 29.51 in - NNW 19.6 mph 28.8 mph 0.00 in Snow Snow
2:24 PM 24.8 °F 12.4 °F 19.4 °F 80% 29.52 in - North 15.0 mph 25.3 mph 0.00 in Snow Snow
2:39 PM 24.8 °F 12.4 °F 19.4 °F 80% 29.54 in - North 15.0 mph 24.2 mph 0.00 in Snow Heavy Snow
2:56 PM 25.0 °F 11.7 °F 19.9 °F 81% 29.57 in - North 17.3 mph 25.3 mph 0.00 in Snow Snow
3:39 PM 24.8 °F 11.1 °F 19.4 °F 80% 29.62 in - NW 18.4 mph 25.3 mph 0.00 in Snow Light Snow
3:46 PM 26.6 °F 11.1 °F 19.4 °F 74% 29.63 in - NW 26.5 mph 32.2 mph 0.00 in Snow Light Snow
3:56 PM 25.0 °F 9.5 °F 18.0 °F 75% 29.65 in - NW 24.2 mph 34.5 mph 0.00 in Snow Light Snow
4:05 PM 24.8 °F 10.0 °F 15.8 °F 69% 29.66 in - NW 21.9 mph 33.4 mph 0.00 in Snow Light Snow
4:13 PM 24.8 °F 9.3 °F 15.8 °F 69% 29.67 in - NNW 24.2 mph 33.4 mph 0.00 in   Overcast
4:56 PM 24.1 °F 8.3 °F 12.0 °F 60% 29.71 in - NNW 24.2 mph 33.4 mph 0.00 in   Overcast
6:56 PM 23.0 °F 8.0 °F 10.9 °F 60% 29.80 in - NW 20.7 mph 32.2 mph 0.00 in   Overcast
7:56 PM 21.0 °F 4.3 °F 3.0 °F 46% 29.82 in - NW 24.2 mph 34.5 mph 0.00 in   Scattered Clouds
8:56 PM 18.0 °F 0.2 °F 1.0 °F 48% 29.86 in - NW 24.2 mph 46.0 mph 0.00 in   Partly Cloudy
9:56 PM 17.1 °F -2.4 °F -0.9 °F 45% 29.88 in - NW 28.8 mph 40.3 mph 0.00 in   Clear
10:56 PM 16.0 °F 0.1 °F -0.9 °F 47% 29.91 in - NNW 17.3 mph 29.9 mph 0.00 in   Clear
11:56 PM 15.1 °F -2.0 °F -2.0 °F 47% 29.93 in - NNW 19.6 mph 33.4 mph N/A   Clear